Weather History for Goshen, IN

Change the Weather History Date:

Tuesday, January 24, 2012

  Actual Average Record
Temperature  
Mean Temperature 29 °F -  
Max Temperature 33 °F 33 °F 63 °F (1950)
Min Temperature 24 °F 18 °F -17 °F (1963)
Degree Days  
Heating Degree Days 36    
Moisture  
Dew Point 23 °F    
Average Humidity 76    
Maximum Humidity 88    
Minimum Humidity 69    
Precipitation  
Precipitation 0.00 in - - ()
Sea Level Pressure  
Sea Level Pressure 30.18 in    
Wind  
Wind Speed 12 mph (West)    
Max Wind Speed 18 mph    
Max Gust Speed 26 mph    
Visibility 9 miles    
Events      
Averages and records for this station are not official NWS values.
T = Trace of Precipitation, MM = Missing Value Source: NWS Daily Summary

Daily Weather History Graph

Daily Weather History Graph

Search for Another Location

Airport:

Trip Planner

Search our weather history database for the weather conditions in past years. The results will help you decide how hot, cold, wet, or windy it might be!

Date:

Astronomy

Jan. 24, 2012 Rise Set
Actual Time 8:02 AM EST 5:48 PM EST
Civil Twilight 7:32 AM EST 6:18 PM EST
Nautical Twilight 6:58 AM EST 6:52 PM EST
Astronomical Twilight 6:25 AM EST 7:24 PM EST
Moon 8:29 AM EST (1/24) 7:41 PM EST (1/24)
Length of Visible Light 10h 46m
Length of Day
9h 46m
New Moon, 2% of the Moon is Illuminated
Jan 24
New Moon
Jan 30
First Quarter
Feb 7
Full
Feb 14
Last Quarter
Feb 21
New

Hourly Weather History & Observations

Time (EST) Temp. Windchill Dew Point Humidity Pressure Visibility Wind Dir Wind Speed Gust Speed Precip Events Conditions
12:53 AM 30.9 °F 21.2 °F 24.1 °F 76% 29.93 in 9.0 mi West 12.7 mph - N/A   Overcast
1:53 AM 30.9 °F 19.1 °F 23.0 °F 72% 29.96 in 10.0 mi West 18.4 mph - N/A   Overcast
2:53 AM 30.9 °F 19.1 °F 24.1 °F 76% 29.98 in 9.0 mi West 18.4 mph 25.3 mph N/A   Overcast
3:53 AM 30.0 °F 17.9 °F 23.0 °F 75% 29.99 in 10.0 mi WSW 18.4 mph 24.2 mph N/A   Overcast
4:53 AM 30.0 °F 18.7 °F 21.9 °F 72% 30.00 in 10.0 mi West 16.1 mph 26.5 mph N/A   Overcast
6:53 AM 30.0 °F 20.0 °F 21.9 °F 72% 30.06 in 10.0 mi WSW 12.7 mph - N/A   Overcast
7:53 AM 30.0 °F 20.0 °F 21.9 °F 72% 30.09 in 10.0 mi West 12.7 mph - N/A   Overcast
9:53 AM 30.0 °F 18.7 °F 21.9 °F 72% 30.15 in 10.0 mi West 16.1 mph - N/A   Overcast
10:53 AM 30.9 °F 20.7 °F 21.9 °F 69% 30.19 in 10.0 mi West 13.8 mph - N/A   Overcast
11:53 AM 32.0 °F 23.6 °F 23.0 °F 69% 30.19 in 10.0 mi West 10.4 mph 20.7 mph N/A   Overcast
12:53 PM 32.0 °F 23.6 °F 24.1 °F 73% 30.19 in 10.0 mi West 10.4 mph - N/A   Overcast
1:53 PM 33.1 °F 25.5 °F 24.1 °F 70% 30.20 in 10.0 mi WNW 9.2 mph - N/A   Overcast
2:53 PM 33.1 °F 25.5 °F 25.0 °F 72% 30.21 in 10.0 mi WNW 9.2 mph - N/A   Overcast
4:53 PM 32.0 °F 24.2 °F 24.1 °F 73% 30.28 in 10.0 mi WNW 9.2 mph - N/A   Mostly Cloudy
5:13 PM 30.2 °F 23.4 °F 24.8 °F 80% 30.26 in 10.0 mi WNW 6.9 mph - N/A   Scattered Clouds
5:53 PM 30.9 °F 22.8 °F 23.0 °F 72% 30.31 in 10.0 mi NW 9.2 mph - N/A   Clear
6:53 PM 28.9 °F - 23.0 °F 78% 30.31 in 10.0 mi Calm Calm - N/A   Clear
7:53 PM 27.0 °F - 21.9 °F 81% 30.33 in 10.0 mi Calm Calm - N/A   Clear
8:53 PM 25.0 °F - 21.9 °F 88% 30.35 in 8.0 mi Calm Calm - N/A   Clear
9:53 PM 25.0 °F - 21.9 °F 88% 30.37 in 7.0 mi Calm Calm - N/A   Clear
10:53 PM 25.0 °F - 21.9 °F 88% 30.35 in 6.0 mi Calm Calm - N/A   Partly Cloudy
11:53 PM 24.1 °F 19.7 °F 21.0 °F 88% 30.35 in 5.0 mi SSE 3.5 mph - N/A   Clear